Benson, MN

2:25 PM CDT on July 22, 2017 (GMT -0500)
Benson Municipal

Weather History for KBBB - October, 2012

Change the Weather History Date:

Sunday, October 7, 2012

  Actual Average Record
Temperature  
Mean Temperature 38 °F -  
Max Temperature 57 °F 62 °F 91 °F (2003)
Min Temperature 19 °F 38 °F 19 °F (2012)
Degree Days  
Heating Degree Days 27    
Moisture  
Dew Point 18 °F    
Average Humidity 53    
Maximum Humidity 93    
Minimum Humidity 20    
Precipitation  
Precipitation 0.00 in - - ()
Sea Level Pressure  
Sea Level Pressure 30.02 in    
Wind  
Wind Speed 7 mph (SW)    
Max Wind Speed 17 mph    
Max Gust Speed 25 mph    
Visibility 10 miles    
Events      
Averages and records for this station are not official NWS values.
T = Trace of Precipitation, MM = Missing Value Source: NWS Daily Summary

Daily Weather History Graph

Daily Weather History Graph

Search for Another Location

Airport or City:

Trip Planner

Search our weather history database for the weather conditions in past years. The results will help you decide how hot, cold, wet, or windy it might be!

Date:

Astronomy

Oct. 07, 2012 Rise Set
Actual Time 7:28 AM CDT 6:50 PM CDT
Civil Twilight 6:59 AM CDT 7:20 PM CDT
Nautical Twilight 6:25 AM CDT 7:54 PM CDT
Astronomical Twilight 5:50 AM CDT 8:28 PM CDT
Moon 11:52 PM CDT (10/7) 2:18 PM CDT (10/7)
Length of Visible Light 12h 20m
Length of Day
11h 21m
Waning Gibbous, 56% of the Moon is Illuminated
Oct 7
Waning Gibbous
Oct 8
Last Quarter
Oct 15
New
Oct 21
First Quarter
Oct 29
Full

Hourly Weather History & Observations

Time (CDT) Temp. Windchill Dew Point Humidity Pressure Visibility Wind Dir Wind Speed Gust Speed Precip Events Conditions
12:12 AM 23.0 °F 18.4 °F 17.6 °F 80% 30.23 in 10.0 mi SW 3.5 mph - N/A   Clear
12:33 AM 21.2 °F 14.9 °F 17.6 °F 86% 30.22 in 10.0 mi WSW 4.6 mph - N/A   Clear
12:53 AM 21.2 °F 13.6 °F 17.6 °F 86% 30.22 in 10.0 mi WSW 5.8 mph - N/A   Clear
1:12 AM 24.8 °F 17.9 °F 19.4 °F 80% 30.21 in 10.0 mi WSW 5.8 mph - N/A   Clear
1:33 AM 24.8 °F 19.1 °F 19.4 °F 80% 30.21 in 10.0 mi WSW 4.6 mph - N/A   Clear
1:53 AM 23.0 °F 15.8 °F 17.6 °F 80% 30.21 in 10.0 mi WSW 5.8 mph - N/A   Clear
2:12 AM 24.8 °F 17.9 °F 19.4 °F 80% 30.20 in 10.0 mi WSW 5.8 mph - N/A   Clear
2:33 AM 23.0 °F 17.0 °F 17.6 °F 80% 30.20 in 10.0 mi WSW 4.6 mph - N/A   Clear
2:52 AM 21.2 °F 13.6 °F 17.6 °F 86% 30.19 in 10.0 mi WSW 5.8 mph - N/A   Clear
3:12 AM 23.0 °F 15.8 °F 17.6 °F 80% 30.18 in 10.0 mi WSW 5.8 mph - N/A   Clear
3:52 AM 21.2 °F 14.9 °F 17.6 °F 86% 30.17 in 10.0 mi WSW 4.6 mph - N/A   Clear
4:13 AM 21.2 °F 14.9 °F 17.6 °F 86% 30.16 in 10.0 mi SW 4.6 mph - N/A   Clear
4:33 AM 21.2 °F 13.6 °F 17.6 °F 86% 30.16 in 10.0 mi SW 5.8 mph - N/A   Clear
4:52 AM 21.2 °F 12.6 °F 17.6 °F 86% 30.15 in 10.0 mi SW 6.9 mph - N/A   Clear
5:13 AM 21.2 °F 12.6 °F 17.6 °F 86% 30.14 in 10.0 mi SW 6.9 mph - N/A   Clear
5:33 AM 21.2 °F 13.6 °F 17.6 °F 86% 30.14 in 10.0 mi SW 5.8 mph - N/A   Clear
5:52 AM 19.4 °F 11.5 °F 15.8 °F 86% 30.13 in 10.0 mi SSW 5.8 mph - N/A   Clear
6:13 AM 21.2 °F 13.6 °F 17.6 °F 86% 30.13 in 10.0 mi SW 5.8 mph - N/A   Clear
6:33 AM 21.2 °F 13.6 °F 19.4 °F 93% 30.13 in 10.0 mi SW 5.8 mph - N/A   Clear
6:52 AM 21.2 °F 13.6 °F 19.4 °F 93% 30.12 in 10.0 mi SW 5.8 mph - N/A   Clear
7:13 AM 21.2 °F 14.9 °F 17.6 °F 86% 30.12 in 10.0 mi SSW 4.6 mph - N/A   Clear
7:33 AM 21.2 °F 14.9 °F 17.6 °F 86% 30.11 in 10.0 mi SSW 4.6 mph - N/A   Clear
7:52 AM 19.4 °F 12.8 °F 17.6 °F 93% 30.11 in 10.0 mi SSW 4.6 mph - N/A   Clear
8:13 AM 23.0 °F 17.0 °F 19.4 °F 86% 30.10 in 10.0 mi SSW 4.6 mph - N/A   Clear
8:32 AM 24.8 °F 20.5 °F 19.4 °F 80% 30.10 in 10.0 mi South 3.5 mph - N/A   Clear
8:53 AM 26.6 °F 20.0 °F 21.2 °F 80% 30.10 in 10.0 mi SSW 5.8 mph - N/A   Clear
9:13 AM 30.2 °F 23.4 °F 23.0 °F 75% 30.09 in 10.0 mi SSW 6.9 mph - N/A   Clear
9:32 AM 35.6 °F 29.9 °F 24.8 °F 65% 30.09 in 10.0 mi SW 6.9 mph - N/A   Clear
9:53 AM 37.4 °F 30.3 °F 24.8 °F 60% 30.08 in 10.0 mi West 10.4 mph - N/A   Clear
10:12 AM 39.2 °F 32.0 °F 24.8 °F 56% 30.08 in 10.0 mi WSW 11.5 mph - N/A   Clear
10:33 AM 42.8 °F 36.2 °F 23.0 °F 46% 30.07 in 10.0 mi WSW 12.7 mph - N/A   Clear
10:53 AM 44.6 °F 38.4 °F 23.0 °F 43% 30.06 in 10.0 mi WSW 12.7 mph - N/A   Clear
11:12 AM 46.4 °F 41.1 °F 21.2 °F 37% 30.06 in 10.0 mi WSW 11.5 mph 17.3 mph N/A   Clear
11:33 AM 48.2 °F - 21.2 °F 34% 30.05 in 10.0 mi West 12.7 mph 18.4 mph N/A   Clear
11:53 AM 48.2 °F - 21.2 °F 34% 30.04 in 10.0 mi SW 11.5 mph - N/A   Clear
12:12 PM 51.8 °F - 21.2 °F 30% 30.03 in 10.0 mi WSW 12.7 mph 18.4 mph N/A   Clear
12:33 PM 51.8 °F - 19.4 °F 28% 30.02 in 10.0 mi SW 12.7 mph 18.4 mph N/A   Clear
12:53 PM 53.6 °F - 17.6 °F 24% 30.01 in 10.0 mi West 11.5 mph 18.4 mph N/A   Clear
1:33 PM 55.4 °F - 17.6 °F 23% 29.98 in 10.0 mi West 12.7 mph 20.7 mph N/A   Clear
1:53 PM 55.4 °F - 17.6 °F 23% 29.97 in 10.0 mi West 13.8 mph 23.0 mph N/A   Scattered Clouds
2:12 PM 55.4 °F - 17.6 °F 23% 29.96 in 10.0 mi WNW 16.1 mph 23.0 mph N/A   Scattered Clouds
2:33 PM 55.4 °F - 17.6 °F 23% 29.95 in 10.0 mi West 16.1 mph 24.2 mph N/A   Overcast
2:53 PM 55.4 °F - 17.6 °F 23% 29.94 in 10.0 mi WSW 16.1 mph 25.3 mph N/A   Overcast
3:12 PM 55.4 °F - 17.6 °F 23% 29.93 in 10.0 mi West 16.1 mph 21.9 mph N/A   Overcast
3:33 PM 57.2 °F - 17.6 °F 21% 29.92 in 10.0 mi West 17.3 mph 23.0 mph N/A   Overcast
3:53 PM 57.2 °F - 15.8 °F 20% 29.91 in 10.0 mi WNW 16.1 mph 21.9 mph N/A   Mostly Cloudy
4:12 PM 55.4 °F - 17.6 °F 23% 29.91 in 10.0 mi West 13.8 mph 24.2 mph N/A   Scattered Clouds
4:33 PM 55.4 °F - 17.6 °F 23% 29.91 in 10.0 mi West 15.0 mph - N/A   Scattered Clouds
4:52 PM 55.4 °F - 17.6 °F 23% 29.90 in 10.0 mi West 15.0 mph 19.6 mph N/A   Scattered Clouds
5:12 PM 55.4 °F - 15.8 °F 21% 29.89 in 10.0 mi West 8.1 mph - N/A   Scattered Clouds
5:33 PM 55.4 °F - 15.8 °F 21% 29.89 in 10.0 mi West 11.5 mph - N/A   Mostly Cloudy
5:52 PM 53.6 °F - 15.8 °F 22% 29.89 in 10.0 mi West 10.4 mph - N/A   Mostly Cloudy
6:12 PM 53.6 °F - 15.8 °F 22% 29.89 in 10.0 mi West 6.9 mph - N/A   Mostly Cloudy
6:33 PM 50.0 °F - 15.8 °F 26% 29.88 in 10.0 mi West 5.8 mph - N/A   Scattered Clouds
6:52 PM 48.2 °F - 15.8 °F 27% 29.88 in 10.0 mi WSW 4.6 mph - N/A   Clear
7:13 PM 44.6 °F 41.4 °F 15.8 °F 31% 29.87 in 10.0 mi SSW 5.8 mph - N/A   Clear
7:33 PM 42.8 °F 40.1 °F 15.8 °F 34% 29.87 in 10.0 mi SSW 4.6 mph - N/A   Clear
7:53 PM 42.8 °F 40.1 °F 15.8 °F 34% 29.87 in 10.0 mi SSW 4.6 mph - N/A   Clear
8:12 PM 42.8 °F 39.3 °F 15.8 °F 34% 29.86 in 10.0 mi SSW 5.8 mph - N/A   Clear
8:33 PM 39.2 °F 35.0 °F 15.8 °F 39% 29.86 in 10.0 mi SSW 5.8 mph - N/A   Clear
8:53 PM 39.2 °F 35.9 °F 15.8 °F 39% 29.86 in 10.0 mi SSW 4.6 mph - N/A   Clear
9:12 PM 37.4 °F 33.8 °F 15.8 °F 41% 29.86 in 10.0 mi SSW 4.6 mph - N/A   Clear
9:33 PM 37.4 °F 32.1 °F 15.8 °F 41% 29.85 in 10.0 mi SSW 6.9 mph - N/A   Clear
9:53 PM 37.4 °F 32.1 °F 15.8 °F 41% 29.85 in 10.0 mi SSW 6.9 mph - N/A   Clear
10:12 PM 37.4 °F 31.4 °F 15.8 °F 41% 29.84 in 10.0 mi SSW 8.1 mph - N/A   Clear
10:33 PM 37.4 °F 31.4 °F 17.6 °F 45% 29.83 in 10.0 mi SSW 8.1 mph - N/A   Clear
10:53 PM 35.6 °F 29.9 °F 17.6 °F 48% 29.83 in 10.0 mi SSW 6.9 mph - N/A   Clear
11:12 PM 35.6 °F 29.9 °F 17.6 °F 48% 29.82 in 10.0 mi SSW 6.9 mph - N/A   Clear
11:33 PM 33.8 °F 27.7 °F 17.6 °F 52% 29.82 in 10.0 mi SSW 6.9 mph - N/A   Clear
11:52 PM 33.8 °F 27.7 °F 17.6 °F 52% 29.81 in 10.0 mi SSW 6.9 mph - N/A   Clear